Theta_e
323 317 317 319 320 320 320 319 303 311 309 300 301 305 304 315 313 312 311 315 311 317 319 320 318 319 316 311 310 311 311 308 308 308 304 315 327 326 326 328 336 338 338 340 341 340 341 341 341 342 342 343 343 343 342 342 342 341 341 341 340 339 339 339 338 338 339 341 341 341 341 340 339 338 337 335 335 334 333 332 331 330 329 328 328 327 328 328 328 328 328 328 327 326 325 325 324
316 315 315 318 320 325 315 317 308 303 304 300 301 305 307 313 313 309 310 313 314 316 319 319 319 318 316 314 314 315 310 311 313 313 317 321 328 326 324 326 335 333 336 339 340 341 340 341 342 342 341 342 343 343 343 342 341 341 341 340 340 339 338 339 339 338 338 338 339 340 340 339 337 336 335 334 332 331 330 329 328 328 327 327 327 327 328 327 327 326 325 325 325 324 324 324 323
316 315 316 320 320 321 318 316 301 300 297 294 301 307 313 308 311 312 313 314 317 319 319 318 317 315 317 317 311 312 304 313 313 317 315 320 320 319 322 325 333 332 333 336 340 340 340 340 342 344 343 344 343 343 343 342 341 341 340 339 338 338 338 337 338 338 337 337 337 337 337 337 335 333 331 330 329 328 328 327 327 327 327 326 326 326 326 326 325 325 324 324 324 324 323 323 323
320 318 314 319 318 321 313 307 303 301 297 298 300 310 312 310 311 313 315 317 318 319 318 315 311 316 316 310 310 314 310 310 313 313 313 315 315 318 322 328 330 331 332 334 340 339 339 341 343 343 343 343 343 343 342 342 341 341 340 339 338 338 337 337 337 336 336 336 334 334 334 333 331 330 329 328 327 328 327 326 325 325 325 325 324 324 324 324 324 323 323 322 323 322 322 322 321
317 317 318 318 318 311 311 306 301 301 296 303 299 309 311 312 311 313 314 317 317 318 316 315 312 314 313 310 312 309 306 312 313 313 313 317 319 319 322 329 327 328 327 333 339 339 340 341 341 341 341 341 342 342 341 341 341 340 338 337 337 336 336 335 335 335 334 333 332 331 330 330 329 328 328 327 327 327 326 325 325 324 324 324 324 324 323 322 322 322 322 321 322 322 321 320 320
312 312 323 322 314 320 312 303 300 299 305 308 306 309 312 313 312 313 314 316 317 318 318 316 313 310 306 307 310 305 309 307 312 312 312 314 317 320 323 325 325 324 325 332 335 337 337 339 340 340 340 341 340 341 340 341 340 338 337 336 335 334 334 333 332 332 332 331 330 329 328 328 327 328 327 327 327 327 327 325 324 324 323 323 322 322 322 322 321 321 320 320 319 319 319 319 319
311 318 322 323 319 319 305 301 299 302 307 313 309 312 312 313 313 314 313 314 317 317 318 312 313 312 308 308 311 310 312 312 312 310 313 315 318 319 321 323 323 321 324 328 332 333 335 338 339 339 339 340 340 340 340 339 338 336 335 334 333 331 331 330 330 329 328 329 329 328 328 327 327 326 326 325 326 326 326 325 324 323 322 322 322 321 321 320 320 319 319 318 318 318 318 317 317
316 316 321 311 309 310 303 301 302 304 307 314 316 312 313 313 314 314 313 313 311 312 315 316 316 311 309 316 306 311 312 312 311 313 314 314 317 317 318 321 320 319 321 326 328 330 334 335 336 337 337 338 339 338 338 336 335 334 333 331 330 329 328 327 326 326 326 325 326 327 326 326 325 325 324 325 324 324 323 323 323 323 322 321 320 320 320 319 318 318 318 317 317 317 316 316 316
314 314 326 316 305 309 302 300 305 311 310 312 312 315 316 315 315 314 312 314 314 315 314 314 315 309 308 308 306 310 311 313 313 314 313 314 314 315 316 317 318 317 319 323 326 326 328 332 334 334 334 335 335 334 335 334 333 332 330 329 328 327 326 325 325 324 324 324 324 324 323 323 323 323 323 323 322 322 322 322 321 321 320 319 318 318 317 317 316 317 316 316 315 315 315 314 314
316 317 311 310 311 301 300 300 303 307 308 312 311 312 314 315 315 316 314 313 314 315 315 316 316 309 310 306 307 309 309 312 313 312 312 313 314 314 314 314 316 317 318 321 323 324 326 329 329 331 332 332 332 332 332 332 331 330 328 327 326 326 325 325 324 324 323 323 322 322 321 321 321 321 321 321 321 320 320 320 319 318 318 317 317 316 316 316 315 315 315 315 314 314 313 313 313
311 316 322 307 301 300 298 299 304 307 308 311 311 314 315 316 316 315 315 314 317 314 314 316 311 310 309 307 306 311 312 311 310 308 312 312 313 313 312 314 315 316 317 321 321 323 323 324 327 326 327 328 329 329 329 329 328 328 327 326 325 325 324 324 323 322 322 322 321 320 319 319 320 319 318 318 318 317 317 317 316 316 316 316 315 315 315 315 314 315 315 315 315 314 313 313 313
309 309 314 303 300 300 301 302 304 306 309 309 308 313 315 316 316 313 313 312 313 313 313 316 310 313 308 307 306 310 311 309 309 310 311 312 311 312 312 312 314 316 319 319 320 321 321 322 322 324 323 323 324 325 325 326 325 325 324 323 323 323 322 321 321 320 320 319 319 318 317 317 318 317 315 314 314 314 315 314 314 315 314 315 314 314 314 314 314 314 314 314 314 314 313 313 313
312 313 307 303 301 302 303 302 303 305 305 307 308 313 317 316 314 314 314 314 314 311 311 316 316 316 308 306 309 310 310 309 310 311 310 309 311 310 314 311 314 316 319 318 317 320 320 318 318 318 320 320 320 321 321 321 322 321 321 321 320 320 320 319 318 317 317 317 316 315 315 315 314 314 314 313 312 312 312 312 313 313 313 313 313 313 313 313 313 313 313 313 313 313 313 313 313
312 315 310 301 306 302 301 304 305 303 302 308 312 314 316 314 315 317 316 312 312 309 311 319 317 313 306 307 307 308 308 310 309 310 310 311 312 311 312 311 314 314 317 317 316 316 317 317 318 319 317 315 312 315 317 318 318 318 318 317 317 317 317 317 316 316 314 313 313 314 314 313 312 311 311 311 311 310 309 309 310 312 312 312 312 313 312 312 313 313 312 312 312 312 312 312 311
312 316 311 307 302 302 305 302 303 303 302 309 312 313 314 309 317 315 313 305 307 314 315 319 317 313 305 307 305 308 308 309 310 310 309 312 312 311 311 313 314 315 313 314 315 315 315 314 313 313 314 311 308 307 308 312 315 315 314 313 312 312 312 312 312 312 312 311 311 311 311 311 311 310 309 308 308 308 308 308 309 310 311 311 311 312 311 311 312 312 311 311 312 312 311 311 309
316 313 311 303 300 300 303 303 308 305 304 310 312 315 309 308 312 311 310 313 309 313 313 309 313 308 313 311 311 309 309 311 310 309 309 311 312 311 311 310 309 310 312 313 313 313 313 312 311 310 309 307 305 303 303 303 310 311 312 311 311 310 310 309 309 309 308 308 309 309 308 309 308 308 308 306 306 306 307 306 307 308 309 309 309 310 310 310 310 311 311 311 311 311 310 309 307
316 316 304 303 299 300 302 304 306 301 307 309 313 310 308 305 311 311 316 315 309 308 308 308 307 312 310 309 308 309 310 311 312 310 311 310 309 310 311 311 309 307 310 311 311 310 311 310 309 307 308 307 305 306 307 307 308 310 311 310 310 309 309 308 311 313 313 310 310 311 310 304 302 302 303 302 305 304 306 306 306 306 307 307 308 309 310 310 310 310 310 310 310 309 307 306 306
315 306 304 300 302 300 305 304 308 310 306 308 309 310 307 303 309 312 314 311 309 308 306 308 309 307 308 309 310 311 312 311 311 308 309 311 310 309 309 309 308 305 305 305 307 308 308 308 307 305 305 306 307 310 309 308 306 307 303 304 306 307 310 310 307 306 310 304 310 305 302 303 300 299 301 306 303 303 304 305 306 307 306 307 307 308 308 308 309 310 309 308 308 307 306 300 300
307 305 305 300 303 307 311 312 311 309 307 309 309 311 309 306 310 312 308 307 308 306 306 307 305 307 308 309 310 310 310 309 308 309 309 312 311 307 307 308 306 304 302 302 303 305 306 306 306 304 303 303 304 305 307 307 301 301 302 303 306 309 307 306 303 305 303 302 302 301 302 301 301 301 301 306 308 307 304 308 309 309 307 307 308 307 306 307 308 307 307 306 306 305 300 296 296
308 307 301 302 309 309 311 313 312 312 310 308 308 309 309 309 311 315 309 307 307 305 304 305 304 303 305 307 308 308 309 308 309 307 305 304 308 308 306 303 301 301 300 301 301 304 304 303 304 305 305 304 303 303 306 302 302 302 302 302 302 302 302 304 302 302 302 302 303 300 300 302 302 300 309 310 311 304 302 309 310 312 311 309 307 307 307 307 306 306 306 305 307 301 297 296 296
310 307 304 303 307 308 310 314 313 312 313 310 308 309 307 309 311 310 308 305 305 306 308 306 304 304 304 305 305 305 305 306 306 305 304 303 302 302 300 300 301 301 301 300 300 301 301 301 301 302 304 305 304 302 302 301 301 300 301 300 300 299 301 301 300 301 302 302 301 301 301 302 303 300 300 300 299 299 299 298 298 298 298 297 307 297 298 299 300 297 298 301 297 297 296 296 297
308 303 306 307 309 307 311 312 313 312 312 311 309 306 306 312 306 310 309 302 301 305 309 308 306 305 304 303 304 305 305 305 305 305 304 303 302 301 301 301 302 301 301 298 298 298 299 299 299 300 302 303 302 300 301 303 302 300 300 299 299 299 303 299 299 299 299 301 301 301 301 300 300 299 299 299 299 299 298 297 297 297 297 297 300 297 297 297 297 296 296 296 296 296 296 296 296
299 304 306 309 310 308 312 312 313 313 312 309 307 308 308 301 300 303 303 301 303 310 309 308 308 307 307 306 305 304 304 303 303 303 302 301 301 301 300 301 301 300 300 298 297 297 297 298 299 298 299 301 302 302 301 300 298 297 297 298 299 298 299 298 298 299 299 300 299 300 299 297 298 297 298 298 298 298 297 297 296 297 296 296 298 296 297 297 296 295 295 296 296 296 296 296 296
305 300 304 305 309 309 311 313 313 313 312 309 309 307 302 300 295 302 300 301 304 307 308 308 308 307 307 305 305 303 303 303 301 301 301 300 301 300 301 300 300 301 300 298 297 297 297 296 298 299 298 299 299 299 297 296 297 299 300 300 298 300 299 298 299 300 301 299 300 300 300 297 296 296 297 297 296 297 297 298 298 296 296 296 298 297 296 295 295 295 296 295 296 295 295 296 295
301 300 303 303 305 306 307 307 307 307 306 307 305 300 299 300 299 299 297 299 302 305 307 307 307 306 304 303 303 302 302 302 302 302 302 301 302 303 303 302 301 302 299 299 298 296 298 297 296 295 296 296 296 296 296 297 298 299 299 297 297 303 298 298 298 298 298 298 299 299 300 297 296 297 296 296 296 296 296 297 296 295 297 296 297 295 296 295 295 295 295 295 295 295 294 294 295
304 302 303 303 304 305 307 306 305 304 304 304 300 299 301 301 302 296 298 300 302 304 303 306 304 303 303 302 303 303 302 301 302 302 301 302 303 301 303 301 301 300 300 299 298 297 296 295 295 296 296 297 298 297 297 297 298 297 298 298 298 298 297 299 298 297 297 296 296 298 299 299 297 295 296 296 295 295 295 296 297 296 296 296 295 295 295 295 295 295 295 295 294 294 294 294 295
305 303 304 303 303 304 306 304 304 305 304 304 300 299 300 302 304 292 299 301 302 302 301 304 303 301 301 301 301 302 302 301 300 300 301 302 304 302 302 304 302 301 301 299 299 299 299 297 298 297 297 300 298 298 298 296 297 297 299 298 298 297 298 299 298 297 297 296 296 298 299 298 297 297 296 295 295 295 296 296 296 296 296 295 295 295 296 296 295 294 295 294 294 294 293 294 294
303 303 302 302 303 304 305 305 304 305 302 305 302 299 300 299 297 293 298 302 304 300 301 300 301 299 300 301 301 302 300 300 301 302 300 301 303 302 301 301 301 303 302 300 298 298 298 296 296 296 296 298 298 297 298 298 297 298 299 298 296 297 299 298 297 297 298 297 298 298 298 297 298 296 296 296 296 295 295 295 296 297 295 294 295 295 295 296 295 295 295 295 295 294 293 293 294
304 304 298 299 301 299 302 302 304 305 301 305 305 301 295 294 289 296 298 302 302 302 300 300 299 299 299 300 301 301 301 304 306 304 303 305 304 304 302 303 302 301 301 301 300 299 297 296 295 296 296 297 297 296 297 297 297 297 297 298 297 300 298 297 297 297 296 296 297 297 297 298 297 296 295 296 298 295 295 296 296 296 295 295 295 296 295 295 295 293 294 294 293 293 293 293 294
306 303 300 298 298 296 300 303 304 303 303 305 305 292 294 292 294 296 299 300 301 300 300 299 299 299 300 300 299 299 301 304 303 303 302 303 303 303 302 302 302 301 300 300 299 297 299 303 302 300 298 298 299 298 298 298 298 299 297 298 298 298 297 296 298 298 296 297 296 297 297 297 297 296 296 296 296 295 296 296 295 295 294 295 295 295 294 294 293 293 293 292 294 293 292 292 292
299 301 303 297 296 292 299 301 302 299 303 304 304 296 293 293 295 297 298 300 301 299 299 298 298 299 299 299 300 300 301 303 303 303 307 307 303 303 303 302 302 302 301 298 299 298 297 298 301 297 298 299 297 298 299 299 298 298 297 298 298 297 297 297 297 296 296 296 295 296 297 298 297 298 297 297 296 295 295 295 295 294 296 295 294 294 294 294 293 292 292 291 291 291 291 292 292
301 297 293 297 295 292 297 301 301 298 300 304 304 295 293 293 295 297 298 298 299 298 298 298 298 299 299 299 300 299 302 302 303 304 303 303 307 302 303 301 301 301 301 300 301 299 296 298 298 297 297 299 298 299 299 298 297 297 298 300 296 298 297 297 296 297 296 294 294 295 297 298 297 298 297 297 295 295 294 294 294 295 295 295 294 294 294 292 292 293 292 292 291 291 291 291 291
299 296 294 294 293 292 294 299 300 302 301 303 302 293 293 292 295 297 299 298 299 297 298 298 298 298 299 298 299 300 300 300 302 302 303 304 303 303 302 300 301 301 302 301 299 299 298 298 297 300 297 298 299 298 299 300 298 298 297 298 297 298 298 296 295 295 295 295 295 295 296 297 297 297 297 297 296 295 294 295 294 295 295 294 293 293 292 293 292 293 292 292 291 290 290 290 290
294 297 294 295 291 293 292 297 300 302 301 298 303 296 294 294 295 296 298 299 298 299 298 299 300 298 298 299 299 300 300 301 301 302 303 304 303 303 302 302 301 301 302 303 301 299 298 298 297 298 299 298 298 298 298 299 298 299 298 297 298 297 298 297 295 296 296 295 294 296 297 296 296 296 296 297 295 296 295 295 294 295 294 293 292 293 292 293 292 292 291 291 291 290 290 289 289
292 293 292 292 294 295 293 293 297 299 301 296 295 294 293 294 295 295 297 299 299 299 299 299 300 300 299 299 299 300 301 302 303 304 305 304 304 302 300 300 300 300 300 300 301 301 299 299 299 298 299 298 297 297 298 298 297 296 296 297 297 296 295 296 295 294 296 294 295 296 297 296 297 295 296 296 296 295 294 294 294 294 294 292 292 292 292 292 292 291 290 290 291 290 290 290 289
296 296 294 294 292 292 292 294 297 299 298 295 296 292 292 294 295 296 297 298 298 299 300 300 301 300 300 299 300 301 301 302 306 307 306 304 303 302 300 299 300 300 299 298 299 300 299 299 298 298 297 296 297 297 297 296 296 295 295 295 295 295 295 296 295 294 294 294 296 295 295 296 296 297 295 296 295 295 293 293 293 294 293 292 291 291 290 290 290 290 290 290 289 289 290 289 289
299 297 295 293 292 292 295 296 298 297 298 295 294 294 293 293 295 296 296 297 298 299 299 299 301 301 301 300 300 302 303 304 308 308 306 304 304 303 302 300 299 300 299 298 297 297 298 298 297 297 297 297 296 295 294 295 295 295 295 295 294 293 294 295 294 295 294 294 295 295 295 295 295 296 296 295 294 295 294 292 292 292 292 292 291 291 291 291 292 290 290 289 288 287 287 287 287
298 295 293 291 293 290 294 295 298 298 296 294 296 294 293 294 295 297 298 297 296 298 299 299 300 302 301 301 301 303 306 308 306 304 305 305 303 303 302 299 300 298 298 297 296 297 297 297 296 297 297 296 295 294 296 294 296 294 292 293 293 292 292 292 292 294 295 297 295 294 295 295 295 295 295 295 295 294 292 292 292 291 291 291 292 292 291 293 290 289 289 287 287 286 285 286 286
297 294 293 292 291 294 295 296 298 298 297 292 295 293 293 294 295 297 297 297 299 299 299 300 300 301 301 302 302 303 304 303 303 303 304 304 304 303 300 300 299 300 299 297 297 297 297 297 297 297 296 296 296 295 294 295 296 296 294 294 293 293 293 294 294 295 294 293 294 294 295 295 295 294 294 295 295 294 292 291 291 291 291 292 290 290 289 289 288 288 287 286 285 285 285 286 284
296 294 292 289 293 292 288 294 298 297 296 293 295 293 293 295 297 296 297 297 299 301 301 301 301 301 301 302 304 304 304 305 303 303 303 303 304 302 301 300 299 299 299 298 297 296 296 296 296 296 296 296 296 296 295 296 295 295 296 295 295 293 291 295 295 295 294 294 295 295 294 294 295 294 294 293 293 293 292 291 291 290 290 291 289 288 288 288 287 287 286 286 285 281 281 282 284
291 296 294 292 293 294 293 292 296 297 297 298 296 293 292 294 293 294 296 298 298 300 301 301 302 302 303 305 306 305 305 307 308 306 303 302 302 302 301 300 299 299 299 298 298 296 299 295 296 296 296 295 295 297 295 296 296 296 295 295 295 294 294 293 293 294 294 294 294 293 293 294 295 294 293 293 294 292 292 291 290 290 289 289 290 288 288 287 287 286 285 284 283 281 280 281 282
291 294 293 294 296 294 295 296 294 292 290 295 295 286 287 293 293 294 296 296 296 299 299 299 301 302 302 302 304 307 306 308 309 307 303 302 302 302 301 300 300 299 299 300 299 298 296 296 296 296 297 295 295 296 296 295 295 294 293 291 291 290 290 290 291 291 292 292 292 293 294 294 294 293 292 292 292 293 291 291 290 290 289 288 289 288 287 286 285 285 285 284 282 282 281 280 280
291 291 296 297 296 295 294 294 294 287 285 292 294 285 284 290 292 296 295 294 295 299 298 300 301 302 302 302 304 304 305 306 305 305 303 301 301 302 301 300 299 299 300 300 300 299 297 297 297 296 296 295 298 296 295 294 294 293 293 293 294 293 292 293 293 293 292 292 293 293 293 293 293 293 292 291 291 291 291 290 289 289 288 288 289 287 285 285 285 285 286 283 282 284 282 279 280
288 297 299 298 296 294 294 296 293 288 293 293 294 290 284 285 292 298 298 295 296 297 298 299 300 302 303 304 304 304 305 305 304 303 302 301 300 300 300 300 300 300 300 299 298 297 297 297 297 297 297 295 297 296 296 295 293 294 294 295 294 294 293 293 293 292 293 292 293 293 293 293 293 292 292 291 290 290 290 289 289 288 287 287 289 285 284 284 285 285 285 284 283 283 281 280 279
293 297 300 297 296 296 297 295 290 290 290 285 289 291 284 284 290 299 298 295 296 297 298 299 300 301 303 304 305 305 305 305 304 303 302 301 300 300 300 300 300 300 299 298 297 297 298 297 297 296 296 296 296 295 295 296 296 294 294 293 293 295 294 294 293 293 293 293 293 293 292 292 292 292 292 291 289 289 290 289 287 286 286 286 288 285 284 284 283 282 282 281 281 281 282 282 279
295 300 300 300 299 298 296 292 290 288 286 282 285 287 282 283 285 291 296 295 295 297 299 300 301 302 303 304 304 304 304 304 303 304 303 301 301 300 300 300 299 298 297 298 297 297 297 296 296 296 295 295 295 295 295 295 294 293 293 294 294 294 294 294 293 293 293 292 292 292 291 291 291 291 291 290 288 288 287 287 286 285 285 285 287 283 283 283 282 282 282 281 281 280 280 280 280
300 299 296 296 296 294 295 291 287 284 280 280 284 287 283 280 284 289 290 292 296 297 298 301 302 302 303 304 303 303 304 304 302 300 300 300 299 299 298 297 297 297 297 296 297 297 297 297 295 295 295 295 295 294 295 294 294 295 295 294 293 292 293 292 292 291 291 291 291 290 290 291 290 290 289 289 287 286 286 287 286 285 285 286 285 282 282 282 281 281 281 280 280 280 279 279 280
298 293 293 292 289 291 287 284 286 279 277 281 283 285 287 280 283 289 294 294 295 297 297 299 300 301 302 303 303 303 303 302 299 299 298 298 298 297 296 296 296 296 296 297 296 296 296 296 295 294 294 294 293 294 295 295 295 295 294 293 292 292 291 292 291 290 290 289 289 289 289 289 289 289 288 286 285 285 286 284 284 283 284 283 282 282 282 281 281 281 280 280 280 280 280 281 279
295 292 290 283 280 282 277 282 276 277 275 280 283 286 283 281 286 291 292 293 294 295 297 298 299 300 300 298 297 297 298 299 300 300 300 299 298 297 296 296 296 295 296 296 296 296 295 295 294 294 294 294 295 296 295 295 294 293 293 293 292 292 292 292 291 290 289 289 288 288 287 286 287 287 285 285 284 284 285 283 283 282 282 283 283 282 281 281 280 280 280 279 279 279 279 279 278
291 288 284 281 277 275 272 275 278 275 277 281 281 286 280 285 288 292 292 293 293 294 294 294 295 295 295 294 295 295 295 296 298 299 299 299 298 297 297 296 296 296 294 294 294 295 295 296 295 295 295 295 294 295 294 293 293 293 293 292 292 292 292 291 290 290 289 289 288 287 286 286 285 285 284 283 283 284 283 283 283 283 283 282 282 281 281 280 280 279 279 279 279 279 279 279 279
290 290 286 283 280 276 272 275 272 274 276 279 283 278 279 279 284 289 290 291 292 292 293 292 292 292 292 292 293 294 295 294 295 296 297 297 296 295 295 295 294 293 293 294 294 295 295 295 295 294 294 294 294 294 293 293 292 292 292 292 292 292 291 290 289 290 289 288 287 287 286 285 284 284 283 284 284 283 283 283 283 282 282 281 281 280 281 279 279 280 279 280 280 280 279 279 278
289 290 290 283 278 280 278 278 277 275 275 275 277 278 282 282 289 289 289 290 291 291 291 291 291 292 292 292 292 293 293 294 294 294 293 293 293 293 294 294 293 293 295 296 296 296 295 295 294 294 293 293 293 293 292 292 292 292 292 291 291 292 292 290 289 289 288 287 287 286 285 284 284 283 283 283 282 282 282 282 281 281 281 281 280 280 279 279 279 279 279 279 278 282 279 278 278
288 287 281 282 285 282 276 277 280 279 277 276 279 280 282 287 286 287 288 288 289 290 290 290 290 291 291 291 291 291 292 292 292 292 291 292 292 293 293 293 294 295 295 295 295 294 294 294 293 293 293 292 292 292 292 292 292 291 291 290 290 289 289 288 287 287 287 287 286 285 284 283 283 283 284 283 282 282 281 281 280 280 280 280 279 279 279 278 279 278 278 278 278 279 279 278 278
288 282 282 286 284 281 280 275 275 276 272 274 279 276 278 279 277 285 285 285 287 289 290 290 290 290 290 290 290 291 291 292 292 292 292 292 293 293 294 294 294 294 294 294 295 294 294 293 293 292 292 292 292 292 292 291 291 290 289 289 289 288 288 287 287 286 286 285 284 284 283 283 281 282 283 283 282 281 280 282 280 280 279 279 279 278 278 278 278 278 278 278 278 278 278 278 278
288 284 286 283 277 278 279 277 269 270 270 273 274 277 277 278 279 280 282 284 286 288 290 289 289 290 290 290 290 290 290 290 291 291 291 292 292 293 292 292 293 293 293 293 293 294 293 293 293 293 293 292 292 293 291 292 291 291 290 289 288 287 287 286 286 285 284 283 283 282 281 281 281 282 281 280 280 280 279 279 279 279 279 278 278 277 278 277 277 277 278 277 278 279 278 277 278
288 289 284 282 282 277 276 277 276 276 271 269 272 274 275 282 282 283 285 286 286 288 289 289 290 290 290 289 289 289 289 290 290 291 291 291 291 291 290 291 291 291 292 292 292 292 292 292 292 292 292 292 291 291 291 290 290 289 289 287 287 286 286 285 284 284 283 282 282 281 280 280 280 281 280 280 279 279 279 278 278 278 278 277 277 277 277 277 277 276 277 277 278 278 278 277 277
280 282 280 280 279 280 280 277 276 276 273 273 272 272 277 281 284 283 285 287 288 289 290 290 290 290 290 289 290 290 290 290 290 290 290 290 290 290 291 291 291 291 291 291 291 291 291 292 291 291 292 291 291 290 290 289 289 288 287 286 285 285 284 284 284 283 282 281 281 281 280 280 280 280 279 279 279 278 278 278 278 278 277 276 276 276 276 276 276 276 276 277 278 278 277 277 277
280 278 278 278 278 277 274 273 277 275 276 273 272 272 277 283 284 284 283 283 287 289 291 291 290 290 290 290 290 290 290 289 289 289 289 289 289 290 290 290 290 289 289 290 291 291 291 291 292 291 291 291 290 290 289 289 288 287 286 285 284 284 284 284 283 281 281 280 280 280 280 279 278 279 279 279 278 278 278 278 277 277 276 276 276 275 275 275 275 275 276 278 278 277 276 276 277
Wind_Speed
12 9 8 8 5 5 3 2 1 1 1 3 1 2 4 8 10 3 7 6 5 6 7 9 10 11 9 10 17 14 12 9 5 2 4 3 1 5 7 10 8 7 4 4 5 4 5 10 12 15 15 16 17 17 16 17 18 19 18 18 18 18 19 19 18 16 17 19 20 20 21 21 22 21 20 20 19 19 19 19 19 19 19 18 18 19 19 19 19 19 18 18 18 18 17 17 17
9 9 9 7 5 2 1 3 1 2 1 2 4 3 5 6 5 5 5 7 5 6 6 10 13 16 21 20 17 13 14 11 8 5 4 4 3 4 10 11 8 8 6 5 4 4 6 10 16 15 14 10 17 17 18 18 19 19 19 19 18 18 19 19 19 19 18 18 19 20 21 21 21 20 19 19 19 19 19 19 19 19 18 18 18 18 18 18 18 18 18 17 17 17 17 17 17
10 8 8 5 5 2 2 1 1 2 4 4 1 3 2 6 9 10 9 9 9 9 9 9 11 9 6 8 13 8 3 8 9 7 5 6 3 8 12 12 7 7 6 4 4 6 7 9 12 13 13 15 17 18 18 19 19 19 19 18 18 19 19 19 19 19 19 19 19 20 21 21 20 19 18 18 19 19 19 19 19 18 18 18 18 18 18 18 18 17 17 17 17 17 18 18 18
9 7 5 5 2 2 0 1 2 2 3 4 4 1 3 12 9 10 8 7 5 5 4 6 8 9 10 17 10 14 8 4 7 6 3 5 3 8 10 6 8 7 5 4 5 6 6 9 10 13 14 16 18 18 18 19 19 19 19 18 19 19 19 18 19 19 19 20 20 20 19 19 19 18 18 18 18 18 18 18 18 18 18 18 18 18 18 18 18 17 17 17 17 17 17 18 18
7 5 3 4 3 2 1 2 2 2 3 2 2 1 10 11 12 9 5 5 6 8 8 6 6 7 11 10 6 3 3 3 8 7 3 2 6 7 9 6 7 7 6 6 8 7 7 10 10 12 15 17 17 18 19 19 19 19 19 18 19 19 19 19 19 19 19 19 19 19 19 19 19 18 18 18 18 18 18 18 18 18 18 18 18 18 18 17 17 17 17 17 17 17 17 17 17
8 5 3 2 2 1 1 1 3 1 1 1 5 5 7 10 12 10 6 5 8 7 7 10 7 5 7 6 4 3 5 3 4 4 4 3 8 9 7 6 6 6 7 8 9 7 9 13 14 16 17 17 17 18 19 20 19 19 18 18 19 18 18 18 18 18 18 18 19 19 19 19 19 18 18 18 18 18 18 17 17 17 17 17 17 17 17 17 17 16 16 16 16 16 16 16 16
4 3 2 2 3 2 2 2 3 6 1 1 9 5 9 9 10 11 8 6 6 11 11 9 14 13 10 2 7 5 6 5 1 3 5 5 7 7 8 6 7 8 10 7 9 10 12 13 15 17 18 18 18 19 20 19 18 18 18 18 18 18 18 18 18 18 18 18 18 19 19 19 18 18 18 17 17 17 17 17 17 17 17 17 17 17 16 16 16 16 16 16 16 16 16 16 16
3 1 2 2 2 1 2 3 3 3 3 3 7 11 10 11 9 9 8 6 4 4 8 9 9 13 7 4 4 3 8 5 4 3 5 6 6 8 7 6 7 9 8 8 9 9 13 16 16 17 18 19 20 20 18 18 18 18 18 17 18 18 18 18 18 18 18 18 18 18 18 18 18 18 17 17 17 17 17 17 17 17 17 17 16 16 16 16 16 16 16 16 16 16 16 16 16
2 2 2 2 3 1 2 3 5 4 9 9 11 10 9 9 9 9 8 7 7 10 10 13 12 9 5 11 5 4 4 5 4 5 6 6 7 7 5 7 7 6 7 5 9 9 10 16 16 17 19 18 18 17 17 17 17 17 17 17 18 18 18 18 17 18 18 18 18 18 18 18 18 17 17 17 17 17 17 17 17 16 16 16 15 15 15 15 15 15 15 15 15 15 15 15 15
1 2 2 1 2 4 3 3 6 4 8 7 9 8 7 6 8 7 9 9 9 9 9 10 9 13 12 9 5 3 2 5 4 6 6 6 5 5 7 7 6 5 6 7 8 9 9 16 18 18 18 17 17 17 17 17 17 17 17 17 18 18 17 17 17 18 18 18 18 17 17 17 17 17 17 17 17 16 16 16 16 15 15 15 15 15 15 15 15 15 15 15 15 15 15 15 14
2 3 2 2 3 3 5 3 7 6 8 6 6 4 6 4 8 8 6 9 9 11 13 15 12 13 9 5 4 1 2 5 6 4 5 5 5 6 6 4 6 6 6 4 7 8 8 10 18 19 18 17 17 17 16 16 17 17 17 17 17 17 17 17 17 17 17 17 17 17 17 17 17 17 17 16 16 15 15 14 14 14 14 15 15 15 15 15 15 15 15 14 15 15 15 16 14
2 3 2 2 4 3 3 3 7 7 8 7 7 5 2 5 8 7 9 8 8 10 7 5 6 12 10 5 2 2 4 6 4 3 4 3 5 5 3 3 4 4 2 3 5 6 7 6 7 13 17 17 17 16 15 16 17 17 17 17 17 17 17 17 17 17 17 16 16 16 17 17 16 16 15 15 14 14 14 14 14 14 15 15 15 15 15 15 14 15 15 15 15 15 16 16 15
1 3 3 2 3 3 3 3 6 6 4 4 8 6 4 7 7 9 9 9 8 9 11 13 16 8 6 4 2 3 2 3 3 3 4 1 3 1 1 3 3 3 3 6 5 5 6 5 6 7 11 16 16 16 15 16 16 16 16 16 16 16 17 17 16 16 15 15 15 16 16 16 15 15 14 13 13 13 13 13 14 14 15 14 14 15 15 15 15 15 16 17 17 17 18 18 17
2 2 2 3 3 3 4 4 8 4 2 6 5 7 5 5 6 5 5 10 8 7 2 9 10 13 9 6 2 2 3 2 2 2 3 3 2 2 3 3 3 4 4 5 6 6 5 5 4 3 5 6 6 10 13 15 15 16 16 16 16 16 16 16 15 14 14 14 14 14 14 14 14 14 13 12 12 11 12 13 14 14 15 15 15 15 16 16 16 16 16 17 17 17 18 18 18
1 3 0 1 3 3 3 4 5 3 4 8 7 9 7 8 3 5 6 12 10 8 6 10 6 9 6 10 4 5 5 4 1 2 2 2 5 5 3 3 3 3 5 6 5 5 5 5 5 5 5 6 6 6 5 9 15 15 16 16 16 16 15 14 13 13 12 11 11 11 12 12 11 11 11 11 11 12 12 12 13 13 15 16 15 14 14 14 16 15 15 16 17 17 17 17 17
1 3 1 2 4 5 2 4 1 4 4 9 10 8 10 10 10 6 4 3 7 11 11 6 9 5 11 6 8 9 9 6 3 3 2 4 4 4 4 5 5 4 4 5 6 6 5 5 4 5 6 6 5 5 5 6 11 15 14 14 14 13 12 10 10 10 8 6 6 7 10 7 7 6 10 6 9 9 10 8 10 10 11 13 15 14 13 13 14 15 15 15 17 17 16 16 17
1 1 2 2 5 5 3 6 7 6 8 8 9 8 8 6 8 8 8 9 14 9 13 11 8 10 9 9 12 12 8 6 3 3 2 3 3 3 3 3 3 4 3 5 5 5 5 5 5 5 5 5 5 4 3 4 6 9 8 10 11 10 10 9 7 6 5 4 2 2 6 4 4 4 4 3 5 1 4 5 6 7 8 11 13 16 13 13 14 15 14 15 16 17 15 16 15
1 2 2 5 3 6 2 5 6 10 12 10 9 7 10 9 6 6 10 13 12 13 13 10 15 15 12 11 12 9 6 5 3 4 2 3 3 3 3 3 4 4 3 4 4 5 4 4 4 5 5 4 3 2 3 3 4 6 5 4 4 5 6 6 5 4 5 4 6 5 4 3 4 3 2 4 2 1 1 3 4 5 7 8 10 15 14 14 16 16 15 15 16 16 16 6 6
5 2 2 4 4 1 5 8 10 10 10 12 10 7 8 9 8 6 8 10 9 12 11 10 13 11 11 12 11 8 6 5 4 4 5 5 3 6 3 2 4 4 4 3 4 5 4 4 4 4 5 5 4 4 3 4 4 4 4 4 3 4 5 4 4 4 4 5 5 5 5 6 2 2 1 2 3 4 4 6 7 7 7 8 8 14 14 14 16 16 15 15 16 15 7 5 5
4 2 4 2 4 4 7 5 9 10 17 15 12 9 8 7 6 5 11 9 10 9 7 8 10 10 8 9 8 6 6 5 3 3 5 5 4 6 5 5 5 3 3 3 4 4 5 5 4 4 3 4 3 2 3 3 3 3 2 2 3 3 3 4 4 4 4 5 5 4 3 2 3 3 3 4 6 3 2 5 7 8 6 7 10 7 9 10 15 14 14 14 8 5 6 6 5
1 2 3 2 5 3 7 6 11 15 15 13 12 10 11 6 6 7 12 11 8 7 5 6 9 11 10 8 8 4 5 6 6 5 6 6 6 6 5 5 4 2 3 3 4 4 4 5 4 4 3 2 3 4 4 3 3 3 3 3 5 4 5 4 3 4 4 4 4 5 2 0 3 2 2 3 4 4 4 4 5 6 4 5 5 5 6 5 6 6 6 6 5 6 5 6 5
3 5 3 5 2 7 6 12 13 12 12 13 12 12 8 8 8 8 9 8 5 4 9 12 10 9 11 9 7 5 6 6 7 6 5 5 5 6 5 4 3 2 3 4 4 5 4 4 4 4 3 3 3 3 3 2 4 4 5 4 3 3 3 3 4 4 4 4 4 4 6 5 4 3 4 4 4 4 4 5 5 6 4 5 4 6 6 5 6 6 6 6 6 7 6 6 6
6 4 7 6 6 7 2 6 12 14 9 12 10 10 9 11 9 12 16 11 5 8 12 12 10 9 9 9 7 8 6 6 6 6 5 5 4 4 4 3 3 3 3 4 4 4 4 4 4 4 4 2 2 2 4 5 5 5 4 4 5 5 3 4 4 3 2 4 4 4 5 6 5 4 4 4 5 5 4 4 5 5 4 6 4 6 5 6 7 7 6 5 6 7 7 7 6
8 4 4 10 7 10 4 7 8 7 10 10 10 12 11 10 13 6 15 8 8 9 10 11 11 10 9 9 7 7 6 5 6 5 4 4 4 4 3 4 3 2 3 4 4 3 3 4 4 3 3 3 1 2 4 5 3 3 1 3 4 2 2 3 2 0 0 4 4 5 4 6 5 5 5 5 5 5 5 4 4 6 5 6 6 6 5 6 6 7 6 5 5 5 6 7 6
10 7 5 6 10 10 11 12 13 16 14 13 15 15 11 11 8 8 10 9 8 8 7 10 9 10 8 8 7 7 6 5 5 4 3 2 2 3 3 2 2 2 4 3 3 3 2 1 4 4 1 3 3 4 4 3 3 3 3 4 2 2 4 2 1 1 3 2 4 4 4 5 5 5 4 5 6 6 6 5 5 6 6 5 6 6 5 5 6 6 6 5 6 6 6 7 6
3 9 8 10 9 9 9 13 13 13 8 13 18 13 11 12 13 12 6 5 4 5 8 6 8 9 8 7 7 6 5 5 5 4 2 0 1 4 2 3 2 3 3 3 3 3 2 2 3 4 4 4 3 3 2 3 3 3 3 2 0 2 2 0 2 3 3 4 4 4 4 3 4 4 4 4 4 6 6 4 5 5 6 5 6 7 6 6 6 6 5 6 6 6 6 7 6
14 14 12 13 9 8 6 12 11 10 10 8 15 9 6 6 2 5 6 4 4 4 7 5 5 8 7 6 6 6 6 4 3 1 3 2 1 3 2 0 1 3 2 3 3 3 2 3 3 4 3 1 1 4 3 3 3 3 0 1 3 3 1 2 2 2 3 3 3 3 3 4 4 5 3 4 4 5 6 5 5 3 4 6 6 7 6 5 6 5 6 7 7 6 6 7 7
16 18 17 14 12 11 8 10 9 8 8 7 13 10 5 7 8 4 6 5 5 7 6 7 6 6 6 6 6 5 5 3 2 0 2 4 2 2 2 2 2 1 1 3 3 3 2 4 2 2 3 2 1 4 1 1 3 1 1 1 4 2 3 1 1 1 1 1 2 2 3 4 4 4 4 4 4 5 5 6 5 4 4 7 7 7 6 6 6 4 6 6 6 5 7 7 7
15 18 13 9 8 10 9 6 5 5 8 8 9 10 4 7 3 4 3 4 5 6 7 6 6 5 5 5 4 4 3 1 2 3 3 0 1 1 2 2 3 2 1 3 3 2 2 2 3 2 3 1 2 1 2 1 1 1 1 1 3 0 2 1 2 1 1 2 2 3 1 2 3 4 4 4 5 6 5 5 4 4 6 6 7 6 5 6 4 6 7 6 6 6 6 7 6
8 7 13 9 6 7 7 4 4 8 3 4 4 3 2 4 4 3 2 4 5 6 6 4 4 4 4 4 4 3 2 1 3 3 1 2 2 3 2 1 2 2 2 2 3 3 2 2 1 3 2 2 2 4 2 1 1 1 1 1 2 0 1 2 0 0 0 1 1 3 2 2 3 3 4 4 4 6 5 4 4 4 6 6 6 6 6 6 5 6 6 6 6 7 7 7 7
6 9 8 7 6 3 5 3 3 6 1 2 5 1 2 4 2 3 3 2 4 6 6 5 3 4 4 3 3 3 3 3 4 2 1 1 2 1 3 2 1 1 3 3 3 4 3 2 1 2 1 2 1 0 0 2 1 2 2 1 2 1 2 2 1 1 1 2 2 3 3 2 2 2 4 4 5 5 4 5 4 4 5 6 7 6 6 5 5 5 6 7 6 7 7 7 7
7 8 4 2 7 3 2 5 3 4 2 4 3 5 2 5 5 3 3 3 2 5 6 5 3 3 4 4 3 2 3 3 3 4 4 4 2 2 1 3 3 2 3 4 3 2 4 3 1 1 2 1 1 0 0 0 1 1 1 2 1 2 1 3 1 0 1 1 2 2 3 2 2 1 3 4 5 5 5 5 3 4 4 6 6 6 4 6 5 6 6 6 7 8 8 8 7
4 2 6 6 7 7 7 1 3 2 5 2 2 4 4 4 7 5 3 3 2 4 5 4 2 2 3 3 3 3 3 4 3 5 6 6 3 2 2 3 3 3 2 4 4 2 3 4 1 1 3 1 1 3 2 0 1 2 2 0 0 0 1 3 1 1 1 1 1 4 4 4 2 4 3 4 4 5 6 6 4 4 4 5 6 6 5 5 5 5 6 6 5 8 8 9 9
6 3 5 3 10 9 5 3 2 1 3 3 2 7 4 7 7 6 4 4 3 3 3 5 4 1 2 2 3 3 4 4 5 6 6 6 4 4 3 3 4 3 1 1 3 4 3 5 4 2 0 1 1 0 0 0 1 1 1 3 2 1 1 0 1 0 0 1 5 3 2 4 2 4 4 4 4 4 5 5 4 4 4 5 6 6 5 4 5 5 6 6 7 8 8 9 10
11 7 8 7 8 6 8 6 5 2 3 9 9 10 6 6 6 5 5 4 3 3 3 3 4 3 3 3 2 3 3 4 6 6 7 6 5 5 4 4 3 3 3 2 2 1 1 3 3 3 1 2 1 1 1 0 1 3 3 1 1 3 3 4 1 1 1 3 5 2 3 3 4 5 4 4 4 5 6 5 6 5 4 5 6 6 5 4 4 5 5 7 6 7 8 9 9
8 6 8 9 9 7 7 3 1 1 6 6 4 5 7 6 5 5 5 5 3 3 4 2 2 3 3 4 4 4 4 6 4 6 8 6 4 5 4 4 3 3 3 3 4 3 2 2 3 4 4 5 3 1 3 3 3 4 4 3 3 2 4 2 4 3 1 6 2 3 3 3 4 4 4 5 4 5 5 6 6 6 5 4 5 6 6 5 5 5 6 6 8 7 7 7 7
12 12 10 9 10 9 8 7 6 3 3 6 7 7 7 6 6 5 4 3 3 3 3 3 3 3 4 4 5 6 6 7 7 6 7 6 6 5 4 5 4 4 3 3 4 4 4 3 4 3 4 3 2 3 3 3 1 1 1 0 0 1 0 1 1 2 6 4 3 3 3 4 3 3 4 4 4 4 4 6 6 6 5 4 5 5 5 5 5 5 6 5 7 9 8 6 7
14 12 12 9 9 7 5 6 3 2 0 3 5 6 5 5 5 5 4 3 4 5 4 4 4 5 4 5 5 6 6 5 5 5 5 5 5 5 4 4 4 5 4 4 4 4 4 4 4 4 3 4 3 1 1 1 0 1 1 1 1 2 2 2 1 5 3 3 4 4 4 3 4 3 4 4 3 4 4 6 6 6 6 6 5 5 5 5 5 6 5 5 4 8 7 7 8
11 10 9 10 7 10 8 5 3 0 4 2 4 5 3 4 4 4 5 5 2 3 3 3 4 5 4 4 4 5 6 5 5 6 6 5 5 5 4 4 4 4 4 4 4 4 3 2 2 1 2 3 3 1 1 1 1 2 1 1 1 2 2 2 2 4 3 3 4 3 4 3 3 3 4 4 4 4 4 4 5 6 6 5 6 6 5 6 5 6 6 6 8 4 6 6 8
9 9 9 8 10 10 5 2 2 1 1 6 5 5 3 4 4 4 5 5 2 4 4 3 4 4 5 6 6 6 6 7 8 9 9 8 7 5 5 4 4 4 2 3 4 3 2 3 3 3 3 2 2 4 1 1 2 2 0 1 3 3 3 2 1 3 3 0 2 4 4 2 3 4 4 4 4 5 4 4 4 5 6 5 6 6 6 6 6 6 6 6 6 8 6 5 5
4 7 9 10 11 3 9 6 5 5 6 4 5 4 3 4 4 3 4 4 4 6 5 4 4 4 4 3 4 6 7 6 5 6 8 7 7 6 6 5 4 4 3 2 3 3 2 3 4 4 2 3 2 4 2 0 2 1 3 3 3 3 3 2 0 1 1 1 4 4 3 3 3 4 5 4 4 4 5 4 4 5 6 6 5 6 6 5 6 6 6 6 6 7 8 5 5
3 4 8 13 9 15 11 13 10 4 2 4 3 1 1 3 4 5 5 3 4 4 6 7 7 6 6 5 7 8 7 5 5 5 7 7 7 6 6 5 4 4 4 4 3 4 3 3 3 3 1 1 3 4 2 1 0 1 2 2 3 2 3 3 3 2 3 3 2 3 4 3 3 4 4 4 4 4 5 5 4 5 5 6 6 6 6 6 6 6 5 6 6 6 6 7 6
6 2 11 10 12 14 13 10 5 3 3 5 1 1 1 0 3 6 6 6 6 4 7 7 7 7 6 7 7 8 7 5 1 1 4 6 6 6 5 5 4 4 4 4 4 2 3 3 3 2 0 1 2 3 3 0 0 2 1 0 1 1 1 1 3 5 4 3 3 3 3 4 3 4 4 4 4 4 4 4 5 5 6 6 5 5 6 6 6 4 5 6 6 6 5 6 7
3 1 7 11 13 13 11 9 2 2 4 3 0 1 0 0 1 4 8 7 6 8 9 9 9 9 9 9 10 9 8 6 5 4 3 4 5 5 5 5 4 4 3 5 4 3 2 2 3 1 1 2 3 3 2 0 1 1 0 0 1 1 3 3 4 3 3 2 2 1 2 4 4 3 4 4 4 4 5 5 4 4 5 6 5 5 6 6 6 5 5 6 6 5 5 6 6
3 2 7 12 12 11 10 5 5 4 6 1 1 2 1 1 1 2 7 3 5 9 10 11 11 11 12 13 12 9 6 6 6 5 5 5 5 5 4 5 4 5 4 4 4 3 2 3 2 1 2 4 3 1 1 0 3 3 3 4 4 4 4 3 2 3 2 0 1 1 0 2 4 3 4 3 4 4 5 5 4 5 5 6 4 6 6 6 6 7 7 7 6 6 5 5 6
2 1 11 7 7 4 5 3 5 3 1 3 3 0 1 1 1 0 2 1 6 8 11 11 12 13 12 11 9 7 5 5 5 5 5 5 4 4 4 6 6 4 4 4 4 3 3 3 2 3 3 2 4 2 3 5 2 2 3 4 4 4 4 5 2 2 2 2 2 2 4 4 4 4 4 4 5 5 6 5 4 5 6 5 6 6 6 6 6 6 6 6 6 5 5 6 5
3 5 9 7 6 4 2 2 3 4 0 1 2 1 1 1 4 7 8 6 4 3 5 7 9 9 9 8 7 7 7 5 5 5 6 5 5 6 5 5 5 4 3 4 3 3 2 3 3 3 3 5 5 4 4 3 3 4 5 4 4 4 2 3 5 5 5 4 5 6 6 5 5 5 5 5 6 6 6 5 5 5 5 5 6 5 5 5 6 6 6 6 6 5 6 5 5
4 4 6 7 5 3 3 2 1 1 1 1 1 0 1 3 1 3 5 4 1 5 6 8 8 9 8 6 5 7 6 5 6 6 6 6 6 5 4 5 5 5 4 4 3 3 3 2 3 5 5 5 4 3 4 3 4 4 4 4 4 4 4 5 5 5 5 5 5 5 5 6 5 5 5 5 6 6 6 5 5 6 5 5 5 5 5 6 6 5 5 6 5 4 4 5 5
1 5 5 7 4 2 1 0 1 1 1 1 0 2 1 4 2 5 4 2 4 7 5 6 5 6 5 4 6 6 5 6 6 5 5 5 6 6 4 4 5 5 4 4 4 3 3 3 5 6 4 4 4 4 4 5 5 4 4 4 4 4 5 5 5 6 5 5 5 5 5 5 5 6 5 6 6 6 5 6 6 6 6 5 5 5 5 5 5 5 6 6 5 5 4 5 5
2 5 5 5 4 2 3 3 1 3 2 2 1 3 1 2 1 1 5 3 3 5 6 5 5 5 5 4 4 5 4 3 3 3 4 4 5 5 5 5 4 4 5 4 4 4 3 4 6 5 4 4 4 5 5 5 5 4 4 4 4 4 5 6 6 6 6 5 5 4 5 5 5 5 5 5 6 5 5 5 5 6 5 5 5 5 5 5 5 6 6 6 4 5 4 5 6
0 1 2 1 1 2 4 3 3 2 2 0 2 2 3 3 3 3 5 4 4 4 5 5 5 5 4 4 3 2 2 3 3 2 3 4 4 4 5 5 5 4 4 4 4 4 4 5 6 5 5 4 5 4 5 5 4 4 5 5 6 5 6 6 6 5 6 5 5 5 4 5 5 5 5 5 5 5 5 5 5 5 5 5 5 5 5 5 5 6 6 5 5 4 4 6 5
2 0 0 2 2 1 3 0 3 3 3 2 1 2 0 1 1 3 3 4 4 4 4 4 4 3 3 3 2 2 2 3 3 4 4 4 4 5 5 5 5 4 4 4 4 4 4 5 5 5 5 5 5 5 5 5 5 5 5 6 6 7 6 6 6 5 4 4 4 4 4 4 5 5 4 4 5 4 5 5 5 5 5 5 5 5 5 5 5 6 6 5 6 3 6 6 5
3 2 1 1 1 4 5 1 1 1 1 1 2 2 2 1 2 0 2 3 3 3 4 4 4 4 3 3 3 3 3 3 4 4 4 4 4 4 5 5 5 5 5 4 4 5 5 5 5 5 5 5 5 5 5 5 5 5 6 6 6 6 6 6 5 5 5 4 5 5 6 5 5 5 3 4 5 4 5 5 5 5 5 5 5 5 5 5 5 6 5 6 5 6 6 5 6
1 2 1 1 1 2 1 2 1 0 2 1 1 3 2 1 2 1 2 3 4 4 4 4 5 4 4 4 4 4 4 4 4 4 4 4 4 5 5 5 5 5 5 5 5 5 4 5 5 5 5 5 4 5 5 5 5 5 6 6 6 6 6 5 4 4 4 5 5 6 5 5 4 4 4 4 5 5 5 5 4 5 5 5 6 6 5 6 6 6 5 6 5 5 5 5 5
3 3 2 1 0 0 1 1 1 1 0 1 1 0 1 3 1 1 6 6 6 6 5 5 5 4 5 4 4 4 4 4 4 4 4 4 5 5 5 5 5 6 6 5 5 4 4 5 5 5 5 5 5 5 5 6 6 5 5 5 5 5 4 4 4 4 5 5 5 5 4 5 4 3 4 4 5 4 5 5 4 5 5 5 5 6 6 5 5 5 6 5 5 6 6 7 6
3 1 1 0 2 1 1 0 1 1 1 2 1 0 1 1 1 4 7 6 6 7 6 6 6 5 6 5 4 5 4 4 4 4 4 4 5 5 5 6 5 5 5 5 5 5 5 5 5 5 5 5 5 5 6 6 5 5 6 6 5 4 4 4 4 5 6 5 4 4 5 4 5 3 4 4 4 4 4 5 5 5 5 5 5 5 5 5 5 5 5 6 6 8 8 7 7
6 5 2 2 1 1 1 2 1 1 1 0 1 1 1 1 1 3 3 2 8 7 7 5 6 6 6 6 6 5 5 5 4 5 5 5 5 5 6 5 5 5 4 4 4 5 4 4 5 4 5 4 5 5 6 5 5 5 6 5 4 4 4 4 5 5 4 4 4 4 3 4 4 4 4 4 4 4 4 5 5 5 5 5 5 5 5 5 4 5 5 6 7 8 9 7 8
1 1 2 1 1 2 1 0 0 0 1 0 2 1 1 1 1 3 2 3 3 4 7 5 5 6 7 6 5 5 5 5 5 5 5 5 5 5 5 5 5 5 4 5 4 4 4 4 4 4 5 5 5 5 5 5 5 6 5 4 4 4 4 4 4 4 4 4 4 3 3 4 4 4 4 4 4 4 4 5 4 5 5 5 5 5 5 5 5 5 6 6 7 8 8 8 8
Wind_Direction
305 305 306 295 290 251 320 183 245 171 212 241 333 202 126 112 158 171 96 150 65 44 65 64 48 39 65 101 104 87 40 68 17 307 106 99 20 30 346 334 358 43 74 103 98 83 78 101 97 89 86 92 87 85 83 83 81 78 75 72 70 68 66 63 62 63 61 57 56 58 58 58 58 56 54 54 54 53 52 52 51 50 48 46 46 45 44 42 40 39 37 36 35 34 32 30 29
304 309 295 272 267 300 188 150 334 155 171 264 241 131 145 133 151 108 127 101 86 108 79 67 77 92 104 118 130 106 45 43 26 65 85 10 216 28 348 335 11 24 25 36 75 90 75 72 81 87 86 80 89 88 86 84 80 77 74 72 72 70 68 66 63 62 62 60 57 58 62 61 60 59 59 58 57 55 54 52 51 50 48 46 46 45 44 43 41 39 37 35 33 32 31 29 27
305 306 307 252 242 232 316 233 210 172 190 221 189 87 142 106 68 68 77 81 105 101 95 81 57 38 132 99 43 37 97 44 21 50 84 10 65 346 331 321 26 22 23 16 75 78 77 82 83 91 94 91 86 85 85 82 78 75 73 73 73 72 70 69 67 65 65 63 62 61 61 62 62 62 61 59 58 57 55 53 51 50 48 47 45 45 44 43 41 39 36 34 32 31 29 27 24
289 275 270 312 264 176 220 114 275 277 208 194 101 119 126 100 91 84 85 112 111 108 96 47 44 343 75 70 103 74 71 44 38 3 55 21 18 298 311 320 38 21 6 9 86 84 81 88 87 86 88 85 86 85 83 81 78 76 74 72 72 72 72 72 68 68 66 66 64 63 64 64 63 62 60 59 58 57 55 53 51 49 47 46 44 43 42 41 39 37 35 32 30 29 26 24 22
275 268 256 298 303 195 210 180 231 156 270 27 67 50 92 107 112 100 76 66 86 67 78 105 90 61 66 69 8 47 41 292 48 42 29 28 339 315 311 30 29 12 8 24 87 79 79 80 81 84 85 84 85 85 83 80 78 77 76 75 73 73 73 71 70 69 68 68 67 66 64 63 61 61 60 58 57 56 54 52 51 49 47 45 44 42 40 39 37 35 33 30 28 26 24 22 19
282 265 226 241 303 60 352 258 200 86 350 198 67 56 90 110 115 117 105 47 52 82 65 53 96 100 38 28 18 73 334 103 341 60 357 354 333 330 350 42 30 11 12 40 61 68 77 79 78 79 79 79 80 81 79 77 77 77 77 76 76 76 74 73 73 72 71 70 68 66 64 63 61 60 59 58 57 56 54 53 51 50 47 45 43 41 39 37 35 33 31 29 26 24 22 20 17
318 309 219 189 262 147 269 242 216 127 13 97 109 167 117 112 116 123 120 136 95 69 74 108 111 110 80 128 92 51 46 6 15 3 7 333 331 352 355 32 39 22 35 33 54 53 53 64 72 75 75 76 78 76 75 77 79 78 78 78 79 78 77 76 75 74 72 70 68 66 64 63 61 60 58 57 56 55 53 52 50 49 46 44 42 40 37 34 31 29 27 24 22 20 18 16 13
239 277 139 211 220 159 218 251 43 42 284 104 112 112 124 120 128 130 138 129 107 87 100 110 73 89 120 197 115 78 50 46 46 29 14 356 1 5 6 20 31 29 31 39 53 51 49 51 63 69 69 69 71 72 76 78 79 80 79 79 79 79 78 77 76 75 73 72 69 67 65 64 62 60 57 56 55 53 51 49 48 45 43 41 39 36 33 30 27 25 23 21 19 17 14 12 10
235 232 276 288 253 161 201 216 101 72 88 54 75 83 103 126 138 137 148 108 113 102 113 117 134 85 115 74 60 101 67 42 59 46 23 359 25 12 13 24 40 18 24 32 57 54 48 54 63 70 70 71 72 76 76 78 80 80 79 79 79 79 78 77 75 74 73 71 70 68 67 65 62 59 57 55 53 51 48 46 45 43 40 38 35 31 28 26 23 21 19 17 15 13 9 8 6
264 228 164 247 267 207 207 158 112 77 83 77 96 111 124 148 134 152 117 143 113 132 97 71 78 109 107 95 115 46 35 21 53 47 11 8 27 24 32 21 16 31 32 30 58 57 53 50 54 58 67 71 76 76 77 78 79 80 80 79 79 78 78 76 75 73 72 71 70 69 67 66 63 60 56 54 51 50 48 46 43 41 37 34 30 27 25 22 19 16 14 12 10 7 5 1 0
196 190 296 239 209 228 207 131 105 115 99 91 91 110 137 187 163 137 102 100 144 97 86 95 85 109 102 66 59 208 89 53 42 23 353 4 33 31 44 20 25 27 30 50 77 74 68 62 59 59 62 68 72 73 74 76 77 78 79 78 77 77 76 75 74 73 72 70 70 70 69 67 64 61 58 55 52 49 47 44 41 37 34 30 27 23 21 18 14 11 9 5 2 359 357 355 352
185 203 180 226 234 183 231 63 123 112 113 119 109 143 174 193 82 109 105 122 107 101 81 131 125 118 92 123 106 90 82 53 37 11 336 4 45 33 47 39 41 32 9 63 77 82 84 80 79 71 66 65 64 67 71 74 76 77 77 76 76 76 75 74 73 71 71 71 71 71 69 67 65 62 60 56 52 48 43 40 37 34 31 27 23 19 16 13 9 6 3 360 356 354 353 352 349
280 176 190 260 228 180 239 147 115 124 117 143 144 143 228 166 129 121 140 117 115 82 48 94 129 127 113 99 93 147 78 52 59 346 328 29 95 70 110 77 60 48 60 48 68 89 101 100 86 87 85 71 64 65 68 71 74 74 73 74 74 74 73 71 71 72 72 72 72 71 69 67 65 62 59 55 50 46 40 34 32 30 27 22 18 15 11 8 5 1 359 357 355 353 352 351 348
257 196 192 236 291 272 201 91 133 130 169 130 135 137 187 139 140 135 135 121 97 84 8 141 118 89 90 109 125 142 100 80 85 292 282 101 114 89 69 66 63 55 49 87 69 69 63 63 88 118 97 89 74 59 62 68 71 72 71 72 72 70 70 70 70 70 71 72 72 71 69 67 64 61 57 52 47 42 37 32 27 23 21 17 12 10 7 4 1 358 356 355 353 352 350 348 346
242 290 229 233 282 287 105 123 153 183 111 136 143 158 126 5 128 82 62 101 66 69 74 51 118 136 190 158 157 177 149 134 181 257 218 149 115 110 113 97 78 73 68 59 61 62 68 69 60 52 69 73 73 71 58 66 71 70 70 69 68 69 70 70 68 66 64 65 69 71 70 66 63 60 57 50 43 37 34 25 19 16 15 13 6 1 359 358 357 355 352 350 349 347 345 344 344
304 337 179 185 243 248 123 99 123 265 127 147 163 155 91 50 5 98 34 74 107 47 22 58 32 317 142 116 120 117 128 132 153 244 144 140 138 122 111 94 94 79 81 81 67 49 51 69 63 60 64 74 79 84 79 74 70 70 69 69 69 68 68 73 74 70 60 55 63 62 64 64 54 42 43 45 37 34 29 21 13 4 4 3 2 353 346 346 348 348 345 343 345 343 341 343 343
305 7 184 205 236 227 185 117 161 231 137 134 163 133 129 94 76 68 102 94 82 62 68 40 33 24 67 95 109 108 112 133 192 176 128 128 157 135 121 118 95 72 68 92 88 72 56 64 69 61 64 74 81 81 90 95 95 86 78 71 68 69 68 62 58 50 42 18 5 41 50 57 56 46 24 21 30 43 24 15 352 339 344 349 351 351 338 338 338 340 338 338 341 343 344 344 339
175 208 184 202 237 210 236 190 167 134 138 150 145 166 112 110 121 114 93 76 81 79 72 61 55 62 77 90 92 100 118 130 163 157 184 164 167 126 112 130 110 98 79 70 89 95 85 65 70 74 73 73 73 86 106 82 63 67 72 63 63 49 46 54 44 38 23 4 17 44 48 49 66 55 37 351 314 328 318 310 299 312 316 326 331 346 344 348 345 342 342 343 343 344 345 343 331
185 194 205 213 220 53 35 85 112 132 137 145 132 154 115 111 125 156 107 111 96 76 71 79 85 84 82 81 93 108 123 129 165 184 189 170 143 116 114 97 98 99 83 70 68 90 89 84 77 87 106 114 103 93 89 101 122 126 119 116 96 84 71 52 38 37 19 13 15 38 38 9 358 115 11 303 292 300 289 282 293 292 304 301 307 342 342 348 345 342 342 344 344 341 344 334 335
231 221 199 158 336 52 8 121 156 126 136 137 140 135 118 127 121 123 110 106 93 93 106 96 97 104 91 94 93 113 137 146 136 101 66 49 84 123 130 97 74 71 68 88 109 92 92 86 80 77 73 71 71 81 77 73 79 70 66 88 102 93 90 90 73 53 26 21 13 37 33 357 330 40 5 323 334 322 297 300 305 305 293 320 333 342 333 344 341 331 331 339 340 332 332 329 327
145 260 201 63 329 34 340 100 100 126 137 133 126 131 119 132 117 131 131 109 88 104 115 124 127 121 112 100 104 111 108 105 91 74 72 68 55 45 47 53 79 101 122 101 77 84 90 98 90 72 54 55 94 60 51 48 81 66 62 61 60 51 36 41 60 67 47 17 14 351 318 342 331 52 44 2 337 323 338 344 334 329 333 331 332 346 334 335 332 322 322 334 331 331 328 325 324
66 60 52 25 14 63 50 98 118 117 122 122 120 121 124 109 20 137 140 97 94 89 98 104 114 118 120 115 106 102 100 106 105 97 98 91 85 86 89 89 80 57 62 92 96 86 74 76 96 89 64 30 54 99 121 76 63 56 39 28 65 64 63 56 54 54 39 26 347 2 355 7 359 12 16 351 331 323 343 338 328 322 334 331 338 349 336 336 329 322 328 330 334 332 325 320 316
109 53 42 36 61 104 339 110 115 127 134 117 113 115 103 82 83 43 69 66 9 50 92 101 106 113 112 111 112 106 103 105 109 111 113 107 90 90 87 80 78 61 70 69 64 79 85 74 65 89 104 90 59 95 78 59 55 64 58 35 41 6 41 52 35 45 72 63 23 12 3 348 358 353 12 348 334 335 346 325 323 321 334 332 336 356 335 334 329 323 327 332 344 337 331 324 314
109 95 71 35 57 68 22 78 92 93 109 101 100 88 90 99 75 49 75 55 37 20 79 91 101 99 105 107 107 100 95 87 85 66 54 64 67 68 62 72 85 79 73 88 89 87 101 118 127 113 111 109 109 89 90 73 81 77 66 57 49 337 39 40 43 43 326 87 59 19 10 349 351 346 353 353 333 335 329 317 325 330 343 331 347 346 330 336 332 325 325 340 338 332 324 317 313
107 104 74 66 57 59 65 66 70 69 60 77 76 74 69 76 90 83 64 49 37 38 45 93 99 100 91 93 91 88 86 83 80 67 38 45 72 87 92 87 84 90 84 82 88 80 66 94 100 108 96 71 64 59 61 65 66 50 43 83 65 335 44 42 325 344 45 58 75 43 358 354 341 337 345 353 336 332 326 323 346 335 340 337 356 334 335 341 326 316 322 336 335 325 314 306 307
101 113 107 84 71 72 64 71 68 73 79 84 82 85 93 99 84 61 85 66 53 68 57 55 98 96 94 92 97 104 98 90 104 107 131 238 159 103 65 77 101 100 102 106 109 133 149 107 86 61 54 53 22 48 75 107 113 78 45 62 191 56 54 257 299 50 25 51 54 35 339 323 325 325 342 349 340 324 319 327 348 332 340 348 356 330 324 333 314 313 330 338 327 314 308 304 307
110 105 96 91 79 75 53 88 82 83 82 83 99 94 82 1 248 101 77 112 86 70 80 64 85 93 93 92 88 89 95 90 89 98 148 190 139 99 113 117 111 89 132 131 104 72 73 77 70 75 64 32 47 58 17 56 50 86 140 135 60 57 332 305 39 30 24 74 67 31 336 345 346 324 351 341 333 316 313 333 323 332 347 0 345 320 319 322 315 320 350 329 317 312 313 308 317
108 106 87 82 83 75 73 78 97 101 84 93 98 97 73 32 47 94 100 107 127 96 76 84 73 82 83 83 81 85 76 77 93 282 150 143 145 133 141 158 110 119 121 120 116 149 158 124 109 122 126 53 8 110 91 74 73 75 301 85 72 39 311 350 1 50 9 100 111 95 355 347 327 328 5 338 327 317 312 325 319 353 5 355 331 314 319 329 321 345 342 324 315 323 317 314 316
131 110 90 96 80 66 31 59 90 93 109 123 122 89 36 17 87 92 118 110 105 106 96 85 87 85 88 88 91 84 112 118 231 188 214 50 146 168 140 129 143 168 92 103 124 134 126 122 118 120 101 105 351 105 130 85 132 182 153 102 111 231 281 349 33 354 43 329 117 102 29 333 340 346 352 334 325 316 317 326 339 5 14 347 321 314 332 324 338 359 333 328 323 324 319 314 314
125 87 124 109 93 57 24 52 78 95 52 20 311 147 127 57 93 99 111 117 113 108 100 89 92 99 96 106 102 121 127 189 229 231 154 171 171 195 159 146 131 137 138 117 141 146 102 65 49 71 53 89 27 350 19 88 97 65 51 82 131 316 343 358 235 309 91 304 15 108 59 352 338 349 346 324 325 317 325 338 352 7 4 336 317 320 333 325 356 354 330 329 325 327 321 318 320
117 130 120 137 120 97 7 44 132 95 81 320 332 139 113 105 136 90 16 89 139 106 103 99 102 115 118 97 112 138 171 207 218 243 289 256 233 199 159 144 142 284 158 143 187 122 124 139 88 109 70 101 149 269 43 41 1 27 339 42 90 57 323 301 337 31 21 344 36 95 73 357 322 356 336 331 325 317 335 344 355 1 358 331 321 322 333 342 356 347 332 330 326 326 321 316 321
142 133 157 174 145 110 110 34 8 139 176 269 287 75 100 135 137 120 98 2 101 120 119 112 121 134 139 141 138 136 178 233 185 193 206 238 227 210 172 162 175 221 207 140 103 142 139 119 112 83 137 144 174 76 2 309 292 177 220 95 320 102 308 296 299 83 13 11 12 62 61 354 311 6 344 343 337 325 340 332 346 355 2 331 320 329 344 350 348 349 332 329 334 328 321 317 316
203 189 142 145 103 136 117 77 7 75 130 204 282 134 138 132 142 137 142 132 70 108 106 114 108 121 142 137 141 163 186 207 208 200 203 204 219 212 203 180 191 227 155 143 146 176 127 108 111 123 177 198 225 176 166 118 347 343 323 273 148 119 250 282 325 45 9 330 55 59 33 339 324 26 358 351 342 336 338 335 351 1 357 331 326 331 345 352 354 343 330 328 339 322 319 317 316
199 219 144 121 134 142 120 93 308 167 165 73 69 106 58 104 133 143 145 149 124 103 132 133 133 219 189 147 158 179 196 199 208 209 202 200 192 200 210 185 192 216 96 143 151 156 187 146 169 196 220 162 210 134 173 152 231 202 231 252 212 227 220 290 298 75 307 42 62 61 28 339 5 20 10 354 347 334 342 328 350 356 348 342 336 334 337 349 347 342 328 331 335 325 320 318 314
175 181 127 104 110 130 128 146 169 160 161 99 84 91 119 128 136 149 154 152 160 148 131 160 142 180 208 164 211 210 213 215 210 201 202 196 194 185 203 166 179 205 162 171 130 130 91 131 159 155 169 223 201 199 159 201 263 268 250 239 207 217 240 214 141 314 242 75 66 32 47 340 15 17 359 355 338 354 339 342 350 338 1 346 349 333 336 340 342 335 336 330 327 316 315 313 313
164 111 113 119 128 133 136 88 95 205 139 135 140 133 141 146 164 150 150 161 162 138 131 156 153 180 223 206 191 219 224 233 236 199 192 183 182 174 193 164 185 203 182 180 157 151 182 175 180 170 189 208 203 170 169 207 223 224 216 224 236 245 253 204 170 184 100 82 66 50 22 355 36 352 359 356 6 358 347 347 344 342 358 353 353 335 331 334 341 340 334 329 326 324 315 309 320
107 103 105 97 100 86 97 112 155 275 95 62 86 107 131 150 169 182 160 166 173 157 156 162 167 186 211 227 212 206 218 229 223 190 164 168 174 185 187 169 180 182 194 177 158 168 191 192 172 204 200 194 155 193 211 210 224 306 256 233 52 83 24 7 287 125 86 105 72 56 4 44 17 355 21 357 7 358 356 347 351 338 349 356 343 325 317 332 339 347 329 333 333 327 321 322 327
121 112 107 105 102 100 102 122 153 337 102 105 92 101 116 143 163 172 157 180 198 177 163 180 183 194 199 223 230 213 217 221 142 137 165 174 180 173 166 165 179 167 200 185 182 191 192 198 180 198 197 161 198 222 92 62 150 135 124 290 54 338 357 15 9 63 98 108 95 58 43 32 6 28 24 355 347 15 10 351 352 338 345 345 332 320 332 337 345 350 339 334 340 325 321 329 336
113 118 115 110 97 100 86 92 146 273 85 135 132 104 110 146 168 160 181 199 213 192 169 174 189 200 203 208 235 230 214 167 178 178 180 184 181 174 162 186 184 198 183 182 193 189 186 183 183 191 202 172 177 157 101 252 81 73 66 353 27 303 277 246 120 97 73 86 96 75 63 30 24 23 34 8 1 9 16 6 350 340 337 341 336 331 341 338 351 345 350 345 330 325 317 324 339
121 125 135 132 147 138 127 136 121 270 219 153 153 115 117 121 145 173 193 194 199 190 181 197 202 217 214 215 210 223 226 190 187 189 180 183 174 172 172 185 190 194 202 178 169 186 185 180 186 190 219 158 148 141 161 91 83 73 80 240 254 209 244 337 59 110 109 77 95 92 73 48 20 33 34 30 14 359 7 12 358 337 332 341 338 339 337 335 349 350 351 345 333 326 334 321 336
87 141 134 131 166 142 135 145 141 90 41 123 145 121 144 165 167 185 192 194 201 188 191 192 223 244 264 259 238 238 222 220 210 178 163 158 163 176 181 191 179 171 186 200 171 175 197 193 193 175 183 168 174 133 150 135 107 230 241 259 273 329 336 351 44 70 168 159 88 75 81 51 42 49 34 19 26 0 358 357 7 340 337 342 347 341 330 336 353 353 347 341 341 328 324 325 325
99 22 133 152 146 116 125 140 140 171 98 202 217 82 271 158 193 189 155 171 218 193 185 205 205 218 227 243 255 252 235 224 204 181 161 159 165 171 175 181 175 175 178 194 178 191 187 195 150 121 126 98 130 143 141 82 78 18 6 3 358 353 353 35 63 92 43 58 87 125 105 77 47 58 58 31 16 11 357 348 3 349 344 342 344 336 328 351 349 345 343 340 329 326 317 327 321
90 313 139 147 124 129 140 152 151 135 144 174 96 125 233 169 214 173 159 190 211 193 212 214 205 212 213 217 227 219 220 228 137 69 128 145 160 164 171 169 173 169 206 171 155 133 96 81 85 103 138 154 89 88 79 58 240 242 230 316 27 343 313 9 59 59 56 27 71 44 125 89 68 68 52 53 18 9 354 352 3 350 345 339 334 338 344 347 337 337 343 337 322 323 340 322 324
86 19 129 119 131 137 151 152 134 94 61 67 296 167 137 323 210 151 157 175 195 200 207 212 208 201 212 212 217 215 208 192 170 179 161 146 153 160 165 161 161 184 145 105 101 103 127 134 127 146 205 82 86 91 102 296 344 342 27 133 234 295 80 41 67 64 80 62 51 52 54 123 93 75 70 55 29 20 356 350 355 352 341 327 333 346 348 336 334 341 339 328 322 328 327 324 323
127 256 139 132 144 151 151 141 116 145 122 64 219 265 39 229 313 97 146 159 213 224 213 207 205 198 202 208 207 207 197 171 166 172 170 163 159 166 176 163 158 109 104 110 126 128 115 107 101 90 64 88 101 84 135 135 43 34 30 42 29 8 48 73 89 87 98 100 88 26 353 114 118 119 108 81 49 29 3 341 348 351 337 327 349 358 344 339 345 342 336 333 325 328 343 339 338
281 202 107 123 129 140 163 128 103 158 114 165 186 308 135 308 317 94 184 249 230 215 208 203 198 200 197 199 195 187 185 170 170 164 163 151 140 109 92 99 86 90 90 100 97 103 102 101 106 96 93 102 114 102 70 63 39 8 47 57 46 26 34 358 70 65 37 18 64 40 31 52 62 60 50 79 53 27 1 339 355 353 340 341 3 351 342 341 347 340 333 329 330 351 353 336 331
178 123 115 117 132 154 199 76 121 65 27 24 304 3 119 285 226 203 162 221 212 171 178 187 190 193 195 193 177 177 178 168 151 126 116 112 107 109 109 114 108 101 119 117 120 108 110 116 121 132 108 73 67 71 80 85 59 33 54 53 57 59 22 32 35 32 23 21 34 26 14 14 42 53 45 31 47 19 355 349 356 352 347 354 354 351 340 347 346 335 328 331 333 353 339 335 358
135 134 136 129 63 84 49 3 16 120 170 291 337 353 32 165 305 217 220 357 342 188 171 170 170 173 179 183 175 170 174 153 132 130 129 121 107 111 132 127 131 140 131 104 98 101 120 128 125 89 77 92 96 96 76 77 80 65 64 61 63 37 37 47 50 38 29 31 36 32 5 18 11 31 34 26 25 11 355 353 352 350 343 350 352 348 346 349 336 328 330 329 326 343 335 5 358
330 128 107 103 131 111 40 83 43 232 162 231 337 322 11 262 245 172 144 143 46 44 70 101 115 128 120 88 68 57 54 97 121 131 135 140 146 148 164 146 123 142 135 125 129 141 127 130 106 99 95 97 93 85 84 66 62 54 68 71 72 65 45 41 56 48 32 34 33 31 23 13 6 15 16 26 9 3 357 354 351 341 339 349 355 353 342 341 334 337 337 325 325 345 355 2 348
212 138 143 106 135 154 134 207 170 58 308 320 29 313 225 239 51 75 129 100 79 81 74 64 75 84 85 87 73 64 57 54 86 113 130 145 138 143 142 131 122 103 101 116 129 110 108 97 98 98 94 90 82 81 81 74 67 62 54 57 60 57 55 55 47 52 35 31 29 35 34 19 21 8 17 23 4 355 356 347 344 334 341 353 355 345 340 340 340 347 331 319 337 342 357 0 333
200 6 83 202 125 152 154 174 169 178 158 238 310 78 226 132 243 80 105 88 69 68 74 66 65 66 69 84 86 97 119 104 88 98 110 114 116 114 104 100 103 112 119 123 113 109 96 97 100 104 99 85 87 85 84 83 73 64 52 51 49 49 62 65 54 49 44 30 23 22 26 30 32 4 21 14 357 348 342 341 343 342 344 350 349 342 342 346 341 335 324 318 341 333 8 353 322
332 7 92 64 167 228 108 194 105 133 114 61 323 191 80 124 82 62 93 94 97 103 95 100 90 89 90 87 122 139 130 133 145 119 99 95 100 98 100 107 117 120 114 96 90 89 89 94 102 103 103 92 80 77 76 80 74 65 65 61 50 48 51 59 54 45 44 42 23 37 18 25 35 14 7 8 344 344 346 344 349 343 341 351 348 345 348 350 335 334 322 335 333 355 5 347 336
252 33 57 233 280 104 115 31 47 52 74 215 167 309 37 58 38 250 123 114 139 129 137 134 131 142 149 125 123 115 115 118 111 111 116 119 111 111 117 117 112 106 102 98 93 100 104 99 99 94 86 80 81 85 85 84 75 69 58 59 58 57 54 55 53 45 38 30 29 33 24 21 28 5 360 3 344 343 357 350 343 341 343 352 351 347 352 345 341 334 325 345 344 4 0 346 341
9 90 239 85 87 109 113 133 289 107 153 220 128 203 161 144 282 179 164 188 173 175 171 154 147 163 137 142 135 123 117 111 101 112 123 122 118 113 101 100 105 105 104 91 78 66 82 108 117 111 102 99 93 87 87 85 83 76 68 64 60 62 62 55 49 46 49 38 32 26 17 13 9 354 19 351 343 356 352 342 344 341 344 355 354 350 351 346 344 330 348 348 348 359 347 343 341
106 160 175 79 353 63 300 92 96 181 230 198 311 245 292 192 236 179 222 201 189 178 178 147 159 171 139 139 123 108 106 105 109 111 109 111 114 105 100 95 86 86 92 100 98 90 73 60 72 91 95 92 86 83 76 71 71 71 73 70 69 61 55 53 37 46 44 43 30 24 17 1 357 353 22 354 349 353 342 339 349 343 349 357 356 352 350 345 345 346 350 341 343 345 347 346 344
44 43 39 342 83 113 43 185 189 102 209 65 283 52 235 311 132 213 205 198 180 171 172 173 174 167 145 141 145 151 155 146 142 139 136 126 113 116 119 115 109 104 98 97 100 92 89 90 85 88 86 89 89 88 88 86 80 85 79 70 65 69 66 58 54 42 45 35 32 31 12 356 339 3 12 352 348 349 343 343 348 348 349 355 355 349 346 345 345 349 342 345 344 346 348 347 347
343 13 7 13 38 210 137 49 85 139 179 148 149 65 266 279 307 354 65 164 170 169 172 172 175 155 146 148 153 161 152 147 141 139 137 121 109 95 88 92 92 90 96 98 96 100 104 95 110 117 116 105 92 91 92 97 94 84 84 81 71 67 57 58 56 43 47 33 21 32 13 341 356 353 4 346 351 346 346 347 347 349 352 353 353 348 347 343 345 348 348 345 344 350 345 346 344
94 125 84 203 343 22 54 282 356 8 94 226 72 141 263 267 30 354 47 355 61 133 154 178 161 138 135 142 152 150 146 147 141 142 131 122 115 104 95 95 108 108 106 96 96 104 108 97 94 97 101 104 105 93 95 94 86 91 91 87 80 66 59 51 60 54 33 35 11 16 12 355 4 332 358 351 345 347 351 348 351 351 350 352 348 352 346 341 349 354 346 347 349 348 346 342 341